Location: Ottawa
(45.4170°N, 75.7000°W)
Time: 02:32:52
(UTC-04:00)

Daily predictions for brighter satellites

Satellite Brightness Start Highest point End
(mag) Time Altitude Azimuth Time Altitude Azimuth Time Altitude Azimuth
ISS -1.0 00:05:24 18° NE 00:05:24 18° NE 00:06:27 10° NE
CZ-4B R/B 3.2 00:04:51 23° NE 00:04:51 23° NE 00:06:43 10° N
Cosmos 2278 Rocket 4.5 00:00:53 10° W 00:05:13 22° NW 00:09:37 10° N
Terra 3.6 00:04:36 19° WSW 00:06:06 22° W 00:09:46 10° NW
Meteor 2-15 4.4 00:00:03 10° N 00:06:12 74° E 00:07:45 52° SSE
Cosmos 1315 Rocket 3.6 00:10:58 40° ENE 00:10:58 40° ENE 00:13:57 10° NNE
Cosmos 1602 4.0 00:11:05 67° NW 00:11:05 67° NW 00:14:41 10° N
NOSS 3-1 (A) 4.0 00:05:01 10° NW 00:12:31 78° NE 00:16:16 36° SE
Cosmos 1633 3.2 00:14:17 53° NNE 00:14:17 53° NNE 00:17:14 10° NNE
Cosmos 1943 Rocket 3.9 00:14:56 18° E 00:14:56 18° E 00:18:13 10° ENE
Lacrosse 5 rocket 3.4 00:17:41 16° ENE 00:17:41 16° ENE 00:18:35 10° ENE
H-2A R/B 4.1 00:15:17 14° WSW 00:17:34 18° W 00:21:10 10° NW
Landsat 5 4.1 00:17:46 46° ENE 00:17:53 46° ENE 00:21:59 10° N
Meteor 2-4 Rocket 3.5 00:14:31 10° N 00:19:58 88° W 00:20:52 64° S
Lacrosse 5 2.4 00:22:40 44° E 00:22:40 44° E 00:26:35 10° ENE
Cosmos 2082 Rocket 3.9 00:17:41 10° NW 00:21:44 20° W 00:23:06 19° WSW
Cosmos 1356 4.4 00:22:31 46° NW 00:22:31 46° NW 00:25:21 10° N
Cosmos 1354 Rocket 3.8 00:17:16 10° NNW 00:22:34 89° WSW 00:23:13 70° SSE
Cosmos 1821 Rocket 4.1 00:21:37 45° SSW 00:23:39 73° W 00:29:55 10° N
Cosmos 1605 Rocket 4.0 00:22:39 53° SSE 00:24:09 71° E 00:30:33 10° NNE
Meteor 1-11 Rocket 4.0 00:22:41 44° SW 00:24:28 66° WNW 00:30:14 10° N
Cosmos 2285 Rocket 4.0 00:24:14 54° SSE 00:25:32 68° ESE 00:31:54 10° NNE
Cosmos 1892 Rocket 3.5 00:21:51 10° N 00:26:05 83° NW 00:26:05 83° NW
SL-8 R/B 4.0 00:23:12 10° WNW 00:28:00 64° N 00:30:39 26° E
H-2A R/B 2.9 00:24:46 10° NNE 00:29:00 58° E 00:29:00 58° E
Gbstr 26 Del rocket 3.6 00:27:57 10° WNW 00:31:25 45° W 00:31:25 45° W
ATLAS 2AS CENTAUR R/B 3.7 00:25:52 10° NNW 00:33:49 51° NE 00:39:40 18° ESE
Cosmos 1346 Rocket 3.7 00:33:53 10° N 00:37:07 41° NE 00:37:07 41° NE
Cosmos 2123 Rocket 4.0 00:31:25 10° NNW 00:37:39 70° W 00:39:07 52° SSW
Genesis I 3.9 00:39:00 51° NE 00:39:00 51° NE 00:42:06 10° NE
Cosmos 1934 Rocket 4.1 00:38:39 46° SW 00:40:20 64° W 00:46:22 10° N
Cosmos 1536 3.7 00:43:44 43° WNW 00:43:44 43° WNW 00:47:22 10° N
NOSS 3-1 (C) 4.1 00:36:23 10° NW 00:43:49 64° WSW 00:46:09 46° S
Cosmos 1400 Rocket 3.9 00:45:55 38° WNW 00:46:00 38° WNW 00:49:54 10° N
Cosmos 1602 Rocket 3.9 00:42:44 10° N 00:47:00 57° ENE 00:47:00 57° ENE
USA 234 4.0 00:42:03 10° NE 00:48:22 53° NNW 00:54:39 10° W
ALOS 2 2.9 00:49:23 56° W 00:49:23 56° W 00:53:26 10° NNW
Cosmos 1626 Rocket 3.8 00:48:22 10° N 00:52:40 65° ENE 00:52:40 65° ENE
Cosmos 1992 Rocket 4.0 00:54:40 65° ESE 00:54:46 65° ESE 00:59:56 10° NNE
Cosmos 2084 Rocket 3.9 00:52:26 10° NW 00:55:33 54° NNW 00:55:33 54° NNW
Cosmos 1455 Rocket 3.2 00:57:31 69° NW 00:57:31 69° NW 01:01:38 10° N
Cosmos 1975 3.6 00:59:41 45° NE 00:59:41 45° NE 01:02:54 10° NNE
MOS 1-B Rocket 4.0 01:01:46 58° S 01:03:01 77° WSW 01:09:48 10° NNW
Cosmos 1689 Rocket 4.4 01:05:20 25° NW 01:05:20 25° NW 01:06:56 10° NNW
Cosmos 2369 Rocket 2.4 01:12:49 50° WSW 01:14:07 65° WNW 01:19:44 10° NNE
Cosmos 1743 4.4 01:18:42 26° ENE 01:18:42 26° ENE 01:21:22 10° NNE
Cosmos 2219 3.9 01:14:37 10° NNW 01:20:05 48° ENE 01:22:16 32° ESE
Cosmos 1066 Rocket 4.1 01:17:12 10° N 01:22:33 69° ENE 01:23:20 60° SE
CZ-2C R/B 2.4 01:23:32 10° NNE 01:28:47 84° WNW 01:29:23 70° SSW
CZ-2C R/B 2.8 01:29:52 77° SSE 01:30:15 90° N 01:35:11 10° NNW
Cosmos 1606 Rocket 4.5 01:33:10 37° E 01:33:10 37° E 01:36:59 10° NNE
GP-B 3.4 01:29:24 10° N 01:33:36 59° WNW 01:33:36 59° WNW
CZ-4B R/B 4.2 01:38:36 11° WNW 01:38:36 11° WNW 01:38:48 10° NW
ISS -1.1 01:37:54 13° NW 01:40:17 26° N 01:43:05 10° ENE
PSLV R/B 4.1 01:41:53 72° NNE 01:41:53 72° NNE 01:45:42 10° N
UNK 3.9 01:28:55 10° WSW 01:42:27 87° SSE 01:46:09 10° ENE
Cosmos 2100 Rocket 4.2 01:44:59 49° SW 01:46:35 65° W 01:52:57 10° N
SeaSat 1 2.6 01:47:23 52° ESE 01:48:29 70° ENE 01:53:26 10° NNW
Cosmos 2058 Rocket 4.0 01:49:06 37° E 01:49:17 37° E 01:53:22 10° NNE
Cosmos 1666 4.2 01:50:29 28° E 01:50:29 28° E 01:53:27 10° NNE
Cosmos 1656 Rocket 3.9 01:52:01 52° SE 01:52:47 57° ESE 01:58:18 10° NNE
Helios 1A Rocket 4.1 01:49:28 10° N 01:53:14 33° WNW 01:53:19 33° WNW
Lacrosse 5 rocket 2.8 01:53:22 25° NW 01:54:21 29° NNW 01:57:35 10° NE
Cosmos 2061 Rocket 4.3 01:54:19 46° SW 01:56:01 61° WNW 02:02:24 10° N
Cosmos 1500 4.0 01:58:09 46° NW 01:58:09 46° NW 02:01:18 10° N
Cosmos 1943 Rocket 2.2 01:56:26 54° WSW 01:57:35 69° WNW 02:03:12 10° NNE
Cosmos 1953 Rocket 3.5 01:53:25 10° N 01:57:43 78° ENE 01:57:43 78° ENE
Cosmos 968 Rocket 3.6 01:58:03 10° NNW 02:03:12 56° WSW 02:03:20 56° WSW
Lacrosse 5 3.0 02:01:49 21° W 02:04:45 41° NNW 02:09:35 10° NE
Cosmos 2233 Rocket 4.4 02:03:29 37° SE 02:05:29 52° E 02:11:24 10° NNE
NOSS 3-3 (A) 4.2 02:04:20 47° SSE 02:05:40 55° ESE 02:12:12 10° NE
NOSS 3-3 (C) 4.2 02:04:25 46° SSE 02:05:46 55° ESE 02:12:17 10° NE
Cosmos 2016 Rocket 4.0 02:06:32 49° SW 02:08:02 65° W 02:14:07 10° N
Cosmos 1459 Rocket 4.5 02:07:10 38° WSW 02:08:46 46° WNW 02:14:37 10° N
Cosmos 1825 Rocket 3.8 02:05:06 10° NNW 02:09:18 57° W 02:09:18 57° W
Cosmos 1726 Rocket 3.4 02:09:50 81° ESE 02:09:51 81° E 02:14:11 10° N
Cosmos 1802 Rocket 4.3 02:08:59 42° WSW 02:10:37 53° WNW 02:16:46 10° N
Cosmos 1818 4.0 02:09:31 41° WSW 02:11:08 57° NW 02:16:34 10° NNE
Cosmos 2098 Rocket 4.2 02:09:41 47° S 02:11:56 88° E 02:19:32 10° N
Cosmos 1758 Rocket 3.5 02:17:29 10° NNW 02:21:59 70° W 02:22:05 69° WSW
ATLAS 2AS CENTAUR R/B 3.2 02:17:13 10° NW 02:24:55 49° WSW 02:27:02 40° SSW
Cosmos 44 Rocket 3.8 02:23:53 10° NW 02:28:21 45° WSW 02:28:21 45° WSW
Meteor 2-17 Rocket 4.5 02:28:56 43° S 02:31:05 76° E 02:37:12 10° NNE
ERS-2 4.1 02:30:15 10° NE 02:33:06 20° E 02:33:47 19° ESE
Meteor 1-21 4.4 02:29:14 10° NNW 02:34:40 52° W 02:35:42 46° SW
Cosmos 2208 Rocket 3.9 02:35:00 54° S 02:36:11 78° ESE 02:41:27 10° NNE
Cosmos 1777 Rocket 4.3 02:34:18 10° NNW 02:39:15 45° WSW 02:39:35 45° WSW
ATLAS CENTAUR R/B 3.8 02:38:00 15° SE 02:39:25 17° ESE 02:42:39 10° ENE
Abrixas 3.7 02:40:13 42° NNE 02:40:13 42° NNE 02:42:53 10° ENE
Cosmos 1725 Rocket 4.3 02:40:59 39° SW 02:42:56 53° WNW 02:48:59 10° N
BREEZE-M DEB (TANK) 2.1 02:39:29 10° WNW 02:46:18 80° SSW 02:46:35 73° SSE
CBERS-1 4.4 02:41:41 10° NNE 02:46:45 55° E 02:48:36 36° SSE
Meteor 1-15 Rocket 4.2 02:50:43 43° SSW 02:52:44 79° W 02:58:40 10° N
Cosmos 1743 4.4 02:53:51 22° WNW 02:53:52 22° WNW 02:56:55 10° NNW
CZ-2D R/B 4.0 02:52:10 10° NE 02:56:30 23° E 03:00:39 10° SE
Cosmos 2082 3.8 02:52:27 10° NNW 02:58:08 74° ENE 03:03:04 14° SSE
IRS-1C 4.5 02:53:15 10° NNE 02:58:31 58° E 03:00:54 31° SSE
Meteor 2-5 Rocket 4.1 02:54:36 10° N 03:00:26 67° ENE 03:04:43 19° SSE
SL-16 R/B 3.5 02:55:28 10° SE 03:01:17 45° ENE 03:07:05 10° N
Cosmos 220 Rocket 4.4 02:57:33 10° NNW 03:01:53 60° ENE 03:04:30 22° SE
Cosmos 2228 3.3 03:02:32 47° WSW 03:03:12 52° WNW 03:07:25 10° N
Meteor 2-9 Rocket 4.5 03:01:25 38° SW 03:03:31 59° WNW 03:09:16 10° N
USA 161 3.2 03:03:09 26° ESE 03:03:57 30° ENE 03:06:30 10° N
Cosmos 2219 4.2 02:59:15 10° NW 03:03:58 28° WSW 03:04:08 28° WSW
Cosmos 1842 4.4 03:00:33 10° NNW 03:03:44 29° W 03:03:44 29° W
SL-08 R/B 3.2 03:03:27 45° S 03:04:50 71° WSW 03:09:30 10° NNW
Cosmos 1340 3.9 03:02:00 10° NNW 03:04:48 28° WNW 03:04:48 28° WNW
Cosmos 1980 Rocket 4.5 03:06:00 10° SE 03:09:07 15° E 03:12:14 10° ENE
Cosmos 2227 Rocket 2.1 03:04:21 10° NNW 03:10:04 87° WSW 03:14:30 17° SSE
Cosmos 44 3.7 03:08:11 10° NW 03:13:03 42° WSW 03:13:39 40° SW
IRS-P3 4.2 03:09:21 10° N 03:14:39 64° WNW 03:16:49 35° SW
ISS -2.2 03:14:04 10° NW 03:17:13 45° NNE 03:20:22 10° E
Cosmos 468 Rocket 4.4 03:16:49 29° S 03:19:20 57° ESE 03:24:24 10° NNE
NOSS 2-1 (D) 4.0 03:20:55 35° SSE 03:22:06 47° ESE 03:26:22 10° NE
NOSS 2-1 (C) 4.0 03:22:15 35° SSE 03:23:27 47° ESE 03:27:44 10° NE
Cosmos 2150 Rocket 3.9 03:18:21 10° NNW 03:23:39 85° WSW 03:27:36 18° SSE
Cosmos 1666 4.3 03:25:30 20° W 03:25:53 20° WNW 03:28:47 10° NNW
SeaSat 1 4.1 03:27:11 17° W 03:27:11 17° W 03:29:44 10° WNW
Cosmos 2278 3.6 03:25:11 32° SSW 03:27:57 88° WNW 03:33:41 10° NNE
GEOS 3 Rocket 3.6 03:23:15 10° SE 03:28:28 83° NE 03:33:40 10° NW
Cosmos 2369 3.7 03:25:57 31° SSW 03:28:47 84° ESE 03:34:30 10° NNE
Cosmos 1812 Rocket 3.7 03:27:58 38° SW 03:29:31 62° W 03:33:59 10° N
Cosmos 2297 Rocket 2.1 03:26:06 10° NNW 03:31:47 82° WSW 03:37:26 10° SSE
Lacrosse 5 rocket 3.9 03:32:32 10° NW 03:34:33 14° N 03:36:33 10° NNE
Cosmos 405 Rocket 2.9 03:33:07 10° NNW 03:37:09 58° W 03:38:36 35° SSW
Cosmos 1898 Rocket 3.5 03:32:14 10° NNW 03:37:33 64° WSW 03:41:29 18° S
UNK 4.0 03:33:44 11° SSE 03:38:16 69° ENE 03:42:56 10° N
NOSS 2-1 (E) 3.7 03:36:52 33° S 03:38:29 62° ESE 03:43:03 10° NE
Cosmos 1766 4.1 03:38:10 19° SSE 03:40:46 46° E 03:44:35 10° NNE
NPP 4.2 03:35:42 10° N 03:40:49 46° WNW 03:43:33 25° SW
Cosmos 1943 Rocket 4.4 03:39:23 10° WNW 03:42:27 15° NW 03:45:33 10° N
Resurs 1-4 Rocket 2.6 03:38:01 10° NNE 03:43:14 57° E 03:47:23 16° S
CBERS 1 LM4 rocket 4.5 03:39:07 10° N 03:43:50 62° WNW 03:46:20 27° SW
Cosmos 1464 Rocket 4.2 03:42:22 25° SSW 03:46:06 60° WNW 03:52:23 10° N
BREEZE-M DEB (TANK) 4.1 03:44:28 20° S 03:46:53 31° SE 03:50:32 10° ENE
NOSS 3-4 (A) 3.7 03:41:00 10° NW 03:47:58 83° SW 03:55:21 10° SSE
NOSS 3-4 (C) 3.7 03:41:05 10° NW 03:48:05 83° SW 03:55:31 10° SSE
Lacrosse 5 4.1 03:44:52 10° WNW 03:48:52 22° N 03:52:52 10° NE
Geosat 4.4 03:45:35 10° NNE 03:50:29 53° NW 03:53:26 23° WSW
Meteor 1-24 Rocket 3.7 03:45:11 10° NNW 03:50:53 84° W 03:56:45 10° S
UNKNOWN OBJECT B 3.8 03:47:42 10° NNE 03:51:27 41° E 03:54:35 13° SSE
ADEOS 3.7 03:46:27 10° N 03:51:37 61° WNW 03:54:45 24° SW
Cosmos 1937 Rocket 3.4 03:47:01 10° NNW 03:52:09 66° WSW 03:57:17 10° S
Cosmos 841 Rocket 4.3 03:48:13 15° S 03:52:24 48° ESE 03:57:28 10° NNE
Cosmos 1378 3.2 03:53:02 10° N 03:56:52 78° E 04:00:20 12° SSE
Okean 3 Rocket 3.8 03:53:36 10° NNW 03:57:53 48° W 04:00:20 23° SSW
Cosmos 1092 Rocket 4.1 03:53:51 10° N 04:00:09 81° E 04:06:29 10° S
Cosmos 1763 Rocket 3.8 03:56:08 17° S 04:00:11 64° ESE 04:05:20 10° NNE
ARIANE 5 R/B 2.5 03:56:12 10° N 04:01:20 78° WNW 04:05:07 19° SSW
Cosmos 1953 3.6 03:57:58 10° SSE 04:01:44 40° E 04:05:33 10° NNE
MTI 4.2 04:01:49 10° SSE 04:05:03 66° ENE 04:08:20 10° N
EO 1 Del DPAF 3.2 04:02:20 13° S 04:05:46 74° WSW 04:09:39 10° NNW
ERS-2 3.3 04:03:37 10° N 04:06:56 31° WNW 04:08:38 21° WSW
BREEZE-M DEB (TANK) 2.7 04:04:08 16° WSW 04:08:12 88° NNW 04:10:42 10° ENE
Meteor 2-12 Rocket 4.4 04:05:20 15° SSW 04:10:23 76° W 04:16:28 10° N
CZ-2D R/B 4.2 04:07:04 10° NNE 04:11:19 55° E 04:15:38 10° S
Cosmos 1437 4.3 04:09:47 10° N 04:12:58 39° ENE 04:16:07 10° SSE
Cosmos 1805 4.1 04:10:53 10° SSE 04:14:39 49° E 04:18:27 10° NNE
Cosmos 1441 Rocket 3.2 04:10:48 10° NNW 04:14:47 76° W 04:18:47 10° S
Abrixas 2.7 04:13:06 10° WNW 04:16:09 74° NNE 04:19:13 10° ESE
Cosmos 1707 4.0 04:14:11 10° NW 04:17:22 24° W 04:18:54 19° WSW
ATLAS CENTAUR R/B 1.9 04:14:20 19° SW 04:18:00 76° NW 04:23:01 10° NNE
GPS 2-04 Rocket1 4.3 04:19:01 17° SSW 04:20:11 19° S 04:22:56 10° SE
IRS-1D 3.8 04:20:32 10° N 04:25:20 51° WNW 04:29:22 14° SW
MOZ.5/SAFIR/RUBIN 5/SL-8 4.3 04:20:57 10° SSE 04:25:37 64° ENE 04:30:17 10° N
Cosmos 1461 4.3 04:21:47 10° NNW 04:25:48 42° NE 04:29:38 10° ESE
Cosmos 1656 3.9 04:23:00 16° SW 04:27:35 62° WNW 04:33:14 10° NNE
RESURS DK-1 4.0 04:25:42 10° NNW 04:29:38 39° ENE 04:33:31 10° SE
USA 161 3.7 04:34:18 12° W 04:34:23 12° W 04:35:27 10° WNW
BREEZE-M DEB (TANK) 3.7 04:32:10 10° W 04:35:39 51° N 04:40:08 10° ENE
Cosmos 1500 Rocket 4.0 04:31:52 10° N 04:36:16 64° E 04:40:36 10° SSE
CZ-2D R/B 2.5 04:31:33 10° N 04:36:52 53° WNW 04:41:59 11° SW
Okean O Rocket 1.8 04:34:38 10° NNE 04:39:02 74° ESE 04:43:26 10° S
Cosmos 1076 Rocket 4.2 04:36:37 10° NNW 04:40:35 35° W 04:44:29 10° SSW
Cosmos 1743 Rocket 3.5 04:36:19 10° N 04:40:40 80° W 04:45:00 10° S
In-Cosmos 22 4.1 04:38:29 10° NNW 04:43:43 62° W 04:48:55 10° S
Cosmos 1697 Rocket 2.9 04:39:37 12° SW 04:44:52 61° WNW 04:50:31 10° NNE
SL-16 R/B 3.2 04:39:33 10° SSW 04:45:02 33° W 04:50:32 10° NNW
Cosmos 2279 Rocket 4.3 04:39:15 10° S 04:45:28 71° E 04:51:43 10° NNE
BREEZE-M DEB (TANK) 2.2 04:46:58 10° W 04:49:43 89° N 04:54:52 10° E
Cosmos 1980 Rocket 2.2 04:46:42 10° SSW 04:52:20 83° WNW 04:58:02 10° NNE
IRS-1C Rocket 4.1 04:47:55 10° NNE 04:53:12 79° WNW 04:58:27 10° SSW
Cosmos 2227 Rocket 3.9 04:50:45 10° WNW 04:53:13 13° W 04:55:42 10° WSW
USA 81 4.1 04:48:11 10° S 04:53:28 85° W 04:58:48 10° N
ISS -2.7 04:50:37 10° WNW 04:53:36 34° SW 04:56:36 10° SSE
Cosmos 1655 Rocket 4.1 04:48:51 10° NNW 04:55:16 76° W 05:01:38 10° S
CZ-4B R/B 3.0 04:51:59 10° NNE 04:56:02 73° ESE 04:59:49 10° S
ADEOS II 3.7 04:51:20 10° NNE 04:56:07 34° E 05:00:52 10° SSE
Cosmos 1544 3.0 04:54:25 10° S 04:58:05 83° W 05:01:46 10° N
Cosmos 1674 2.7 04:57:02 10° N 05:00:50 89° E 05:04:35 10° S
Cosmos 2322 Rocket 3.0 04:57:28 10° S 05:02:51 50° ESE 05:08:17 10° NE
PSLV R/B 3.9 04:59:30 10° N 05:03:20 56° WNW 05:07:02 10° SSW
Cosmos 371 Rocket 4.2 04:58:43 10° S 05:03:20 49° ESE 05:07:59 10° NNE
Cosmos-2242 3.7 05:03:44 10° SW 05:07:44 37° WNW 05:11:45 10° N
Cosmos 2221 4.0 05:04:43 10° SSE 05:08:40 38° E 05:12:40 10° NNE
Cosmos 1470 2.8 05:05:19 10° S 05:09:15 87° E 05:13:15 10° N
